Location: Oshawa
(43.9000°N, 78.8670°W)
Time: 07:49:50
(UTC-04:00)

Altair - Visible Passes

Search period start: 01 August 2015 00:00
Search period end: 11 August 2015 00:00
Orbit: 1502 x 1682 km, 47.2° (Epoch: 01 August)

Date Brightness Start Highest point End Pass type
(mag) Time Alt. Az. Time Alt. Az. Time Alt. Az.
01 Aug 7.3 01:36:04 10° WSW 01:45:16 87° NNW 01:54:37 10° ENE visible
01 Aug 7.6 03:41:14 10° W 03:50:27 73° N 03:59:55 10° E visible
01 Aug 7.7 23:07:41 10° SSW 23:16:01 41° SE 23:24:24 10° ENE visible
02 Aug 7.3 01:10:55 10° WSW 01:20:07 90° SSE 01:29:26 10° ENE visible
02 Aug 7.6 03:16:04 10° W 03:25:16 73° N 03:34:42 10° E visible
02 Aug 7.5 05:21:01 10° WNW 05:30:17 79° SSW 05:39:51 10° ESE visible
02 Aug 7.7 22:42:49 10° SSW 22:50:58 38° SE 22:59:12 10° ENE visible
03 Aug 7.3 00:45:47 10° WSW 00:54:59 87° SSE 01:04:16 10° ENE visible
03 Aug 7.6 02:50:54 10° W 03:00:05 72° N 03:09:28 10° E visible
03 Aug 7.5 04:55:53 10° WNW 05:05:09 83° SSW 05:14:42 10° ESE visible
03 Aug 7.8 22:17:57 10° SSW 22:25:55 35° SE 22:33:58 10° ENE visible
04 Aug 7.3 00:20:39 10° WSW 00:29:51 83° SSE 00:39:06 10° ENE visible
04 Aug 7.6 02:25:43 10° W 02:34:54 72° N 02:44:15 10° E visible
04 Aug 7.4 04:30:45 10° WNW 04:40:00 86° SSW 04:49:32 10° ESE visible
04 Aug 7.9 21:53:09 10° SSW 22:00:53 32° SE 22:08:43 10° ENE visible
04 Aug 7.2 23:55:32 10° WSW 00:04:43 80° SSE 00:13:56 10° ENE visible
05 Aug 7.6 02:00:32 10° W 02:09:43 73° N 02:19:02 10° E visible
05 Aug 7.4 04:05:36 10° WNW 04:14:52 89° SSW 04:24:22 10° ESE visible
05 Aug 8.0 21:28:22 10° S 21:35:50 29° SE 21:43:27 10° ENE visible
05 Aug 7.3 23:30:25 10° SW 23:39:36 76° SSE 23:48:48 10° ENE visible
06 Aug 7.5 01:35:20 10° W 01:44:32 73° N 01:53:50 10° E visible
06 Aug 7.4 03:40:28 10° WNW 03:49:43 88° NNE 03:59:11 10° ESE visible
06 Aug 8.2 21:03:37 10° S 21:10:48 27° SE 21:18:09 10° ENE visible
06 Aug 7.3 23:05:19 10° SW 23:14:29 73° SSE 23:23:39 10° ENE visible
07 Aug 7.5 01:10:09 10° W 01:19:21 74° N 01:28:39 10° E visible
07 Aug 7.4 03:15:19 10° WNW 03:24:33 86° NNE 03:34:00 10° ESE visible
07 Aug 7.7 05:20:10 10° WNW 05:28:53 47° SW 05:37:46 10° SSE visible
07 Aug 7.3 22:40:14 10° SW 22:49:23 69° SSE 22:58:29 10° ENE visible
08 Aug 7.5 00:44:57 10° W 00:54:10 75° N 01:03:27 10° ENE visible
08 Aug 7.4 02:50:10 10° WNW 02:59:24 83° NNE 03:08:49 10° ESE visible
08 Aug 7.6 04:55:01 10° WNW 05:03:48 50° SW 05:12:46 10° SSE visible
08 Aug 7.3 22:15:10 10° SW 22:24:17 65° SSE 22:33:20 10° ENE visible
09 Aug 7.5 00:19:46 10° W 00:29:00 76° N 00:38:15 10° ENE visible
09 Aug 7.4 02:25:01 10° WNW 02:34:14 81° NNE 02:43:37 10° ESE visible
09 Aug 7.5 04:29:51 10° WNW 04:38:43 54° SW 04:47:46 10° SE visible
09 Aug 7.4 21:50:07 10° SW 21:59:11 62° SSE 22:08:11 10° ENE visible
09 Aug 7.5 23:54:35 10° W 00:03:49 77° NNW 00:13:04 10° ENE visible
10 Aug 7.4 01:59:51 10° WNW 02:09:04 79° NNE 02:18:25 10° E visible
10 Aug 7.4 04:04:41 10° WNW 04:13:37 57° SW 04:22:44 10° SE visible
10 Aug 7.5 21:25:05 10° SW 21:34:06 58° SE 21:43:01 10° ENE visible
10 Aug 7.5 23:29:23 10° W 23:38:39 79° NNW 23:47:54 10° ENE visible
